Weather History for Madison, WI

Change the Weather History Date:

Saturday, December 13, 2014

  Actual Average Record
Temperature  
Mean Temperature 38 °F 24 °F  
Max Temperature 44 °F 31 °F 57 °F (1975)
Min Temperature 32 °F 16 °F -17 °F (1903)
Degree Days  
Heating Degree Days 27 42  
Month to date heating degree days 495 510  
Since 1 July heating degree days 2179 2089  
Cooling Degree Days 0 0  
Month to date cooling degree days 0 0  
Year to date cooling degree days 620 568  
Moisture  
Dew Point 37 °F    
Average Humidity 95    
Maximum Humidity 100    
Minimum Humidity 89    
Precipitation  
Precipitation T in 0.06 in 1.09 in (1928)
Month to date precipitation 0.23 0.88  
Year to date precipitation 34.51 33.62  
Snow  
Snow 0.00 in 0.50 in 6.40 in (1892)
Month to date snowfall 0.1 5.6  
Since 1 July snowfall 8.6 9.7  
Snow Depth T in    
Sea Level Pressure  
Sea Level Pressure 30.13 in    
Wind  
Wind Speed 4 mph (SSW)    
Max Wind Speed 8 mph    
Max Gust Speed 13 mph    
Visibility 2 miles    
Events Fog , Rain    
T = Trace of Precipitation, MM = Missing Value Source: NWS Daily Summary

Daily Weather History Graph

Daily Weather History Graph

Search for Another Location

Airport:

Trip Planner

Search our weather history database for the weather conditions in past years. The results will help you decide how hot, cold, wet, or windy it might be!

Date:

Astronomy

Dec. 13, 2014 Rise Set
Actual Time 7:20 AM CST 4:22 PM CST
Civil Twilight 6:48 AM CST 4:54 PM CST
Nautical Twilight 6:12 AM CST 5:30 PM CST
Astronomical Twilight 5:37 AM CST 6:05 PM CST
Moon 11:33 PM CST (12/13) 11:35 AM CST (12/13)
Length of Visible Light 10h 06m
Length of Day
9h 01m
Waning Gibbous, 57% of the Moon is Illuminated
Dec 13
Waning Gibbous
Dec 14
Last Quarter
Dec 21
New
Dec 28
First Quarter
Jan 4
Full

Hourly Weather History & Observations

Time (CST) Temp. Windchill Dew Point Humidity Pressure Visibility Wind Dir Wind Speed Gust Speed Precip Events Conditions
12:08 AM 35.1 °F 31.0 °F 34.0 °F 96% 30.21 in 1.8 mi Variable 4.6 mph - N/A   Overcast
12:53 AM 35.1 °F - 33.1 °F 92% 30.22 in 1.0 mi Calm Calm - N/A   Overcast
1:22 AM 35.1 °F - 34.0 °F 96% 30.19 in 2.0 mi Calm Calm - N/A   Overcast
1:46 AM 35.1 °F 32.2 °F 34.0 °F 96% 30.19 in 3.0 mi South 3.5 mph - N/A   Overcast
1:53 AM 35.1 °F 31.0 °F 34.0 °F 96% 30.21 in 3.0 mi South 4.6 mph - N/A   Overcast
2:53 AM 32.0 °F 28.7 °F 30.0 °F 92% 30.21 in 2.5 mi South 3.5 mph - N/A   Overcast
3:15 AM 33.1 °F 30.0 °F 30.9 °F 92% 30.17 in 3.0 mi South 3.5 mph - N/A   Overcast
3:53 AM 32.0 °F - 30.0 °F 92% 30.20 in 3.0 mi Calm Calm - N/A   Mostly Cloudy
4:53 AM 34.0 °F 31.0 °F 32.0 °F 92% 30.19 in 3.0 mi SSW 3.5 mph - N/A   Overcast
5:04 AM 34.0 °F 31.0 °F 33.1 °F 96% 30.16 in 3.0 mi SSW 3.5 mph - N/A   Overcast
5:22 AM 35.1 °F 32.2 °F 33.1 °F 92% 30.16 in 4.0 mi Variable 3.5 mph - N/A   Overcast
5:51 AM 35.6 °F 32.8 °F 33.8 °F 93% 30.16 in 2.0 mi SSW 3.5 mph - N/A   Overcast
5:52 AM 35.1 °F 32.2 °F 34.0 °F 96% 30.19 in 2.0 mi Variable 3.5 mph - N/A   Overcast
6:01 AM 35.1 °F 32.2 °F 34.0 °F 96% 30.16 in 1.2 mi SSW 3.5 mph - N/A   Overcast
6:12 AM 35.1 °F 32.2 °F 34.0 °F 96% 30.16 in 0.5 mi SSW 3.5 mph - N/A Fog Fog
6:33 AM 36.0 °F 33.3 °F 35.1 °F 97% 30.16 in 0.2 mi SW 3.5 mph - N/A Fog Fog
6:53 AM 36.0 °F 32.1 °F 35.1 °F 97% 30.19 in 0.2 mi Variable 4.6 mph - N/A Fog Fog
7:53 AM 36.0 °F - 35.1 °F 97% 30.19 in 0.2 mi Calm Calm - N/A Fog Fog
8:53 AM 36.0 °F 33.3 °F 35.1 °F 97% 30.19 in 0.2 mi Variable 3.5 mph - N/A Fog Fog
9:53 AM 37.0 °F 32.4 °F 36.0 °F 96% 30.19 in 0.2 mi SW 5.8 mph - N/A Fog Fog
10:13 AM 37.0 °F 33.3 °F 36.0 °F 96% 30.17 in 1.0 mi Variable 4.6 mph - N/A   Overcast
10:43 AM 37.9 °F 34.4 °F 36.0 °F 93% 30.15 in 2.0 mi SW 4.6 mph - N/A   Overcast
10:53 AM 37.9 °F 33.5 °F 37.0 °F 97% 30.17 in 2.0 mi SW 5.8 mph - N/A   Overcast
11:38 AM 39.0 °F 34.0 °F 37.9 °F 96% 30.12 in 1.8 mi SW 6.9 mph - N/A   Overcast
11:53 AM 39.0 °F 36.8 °F 37.9 °F 96% 30.14 in 1.2 mi Variable 3.5 mph - 0.00 in   Light Drizzle
12:53 PM 41.0 °F 38.0 °F 39.0 °F 93% 30.11 in 1.8 mi SW 4.6 mph - 0.00 in   Light Drizzle
1:09 PM 41.0 °F 38.0 °F 39.9 °F 96% 30.07 in 2.0 mi WSW 4.6 mph - 0.00 in   Light Drizzle
1:53 PM 42.8 °F 41.1 °F 41.0 °F 93% 30.07 in 2.0 mi WSW 3.5 mph - N/A   Light Drizzle
2:05 PM 43.0 °F 41.3 °F 41.0 °F 93% 30.07 in 5.0 mi SW 3.5 mph - 0.00 in   Light Drizzle
2:53 PM 44.1 °F 41.5 °F 41.0 °F 89% 30.09 in 6.0 mi WSW 4.6 mph - 0.00 in   Overcast
3:13 PM 44.1 °F 42.5 °F 41.0 °F 89% 30.07 in 6.0 mi SW 3.5 mph - N/A   Overcast
3:53 PM 44.1 °F 41.5 °F 41.0 °F 89% 30.10 in 6.0 mi Variable 4.6 mph - N/A   Overcast
4:15 PM 44.1 °F 41.5 °F 41.0 °F 89% 30.08 in 5.0 mi SW 4.6 mph - N/A   Overcast
4:53 PM 44.1 °F 42.5 °F 42.1 °F 93% 30.11 in 5.0 mi WSW 3.5 mph - N/A   Overcast
5:20 PM 43.0 °F - 42.1 °F 97% 30.08 in 2.5 mi Calm Calm - N/A   Overcast
5:35 PM 43.0 °F - 42.1 °F 97% 30.08 in 1.5 mi Calm Calm - 0.00 in   Light Drizzle
5:53 PM 43.0 °F - 42.1 °F 97% 30.11 in 1.5 mi Calm Calm - 0.00 in   Light Drizzle
6:40 PM 43.0 °F 39.5 °F 42.1 °F 97% 30.08 in 2.0 mi South 5.8 mph - 0.00 in   Light Drizzle
6:48 PM 42.8 °F 39.3 °F 41.0 °F 93% 30.08 in 0.8 mi South 5.8 mph - 0.00 in   Light Drizzle
6:53 PM 42.1 °F 38.4 °F 41.0 °F 96% 30.10 in 0.5 mi South 5.8 mph - 0.00 in   Overcast
7:53 PM 42.1 °F 37.7 °F 41.0 °F 96% 30.08 in 0.2 mi South 6.9 mph - N/A Fog Fog
8:53 PM 41.0 °F 38.0 °F 39.9 °F 96% 30.07 in 0.2 mi South 4.6 mph - N/A   Mist
9:53 PM 41.0 °F 39.0 °F 39.9 °F 96% 30.07 in 0.8 mi South 3.5 mph - N/A   Overcast
10:53 PM 42.1 °F 39.2 °F 41.0 °F 96% 30.08 in 0.5 mi SSW 4.6 mph - N/A Fog Fog
11:06 PM 42.1 °F 38.4 °F 41.0 °F 96% 30.06 in 0.2 mi SW 5.8 mph - N/A Fog Fog
11:53 PM 42.1 °F 40.2 °F 41.0 °F 96% 30.08 in 0.2 mi Variable 3.5 mph - N/A Fog Fog